Flag for Germany Weather past 2 weeks in Ravensburg, Baden-Württemberg, Germany

Now
84 °F

Sunny.


Feels Like: 84 °F
Forecast: 60 / 89 °F
Wind: 3 mph from North

Location: Friedrichshafen Airport

Current Time: Aug 29, 2015 at 3:15:50 PM

Latest Report: Aug 29, 2015 at 2:50 PM


Visibility: 10 mi

Pressure: 30.15 "Hg

Humidity: 45%

Dew point: 61 °F

Location of RavensburgLocation

Historic Weather in Ravensburg — Graph

°F

Ravensburg temperature yesterday

Maximum temperature yesterday: 88 °F (at 5:50 PM)
Minimum temperature yesterday: 57 °F (at 4:20 AM)
Average temperature yesterday: 73 °F

Past Weeks' High & Low Weather Summary

 TemperatureHumidityPressure
High88 °F (Aug 28, 5:50 PM)94% (Aug 20, 1:20 AM)30.27 "Hg (Aug 20, 1:20 AM)
Low48 °F (Aug 26, 4:20 AM)28% (Aug 26, 5:20 PM)29.71 "Hg (Aug 24, 7:50 AM)
Average64 °F69%30.02 "Hg
* Reported Aug 14 1:20 PM — Aug 29 1:50 PM, Ravensburg, Weather by CustomWeather, © 2015

Note: Actual official high and low records may vary slightly from our data, if they occured in-between our weather recording intervals... More about our weather records

Advertising

Ravensburg weather history for previous 24 hours

 ConditionsComfort  
Time TempWeatherWind HumidityBarometerVisibility
1:50 PM
Sat, Aug 29
79 °FSunny.9 mph54%30.18 "Hg10 mi
1:20 PM79 °FSunny.8 mph58%30.18 "Hg10 mi
12:50 PM81 °FSunny.5 mph54%30.21 "Hg10 mi
11:50 AM79 °FSunny.3 mph51%30.21 "Hg10 mi
11:20 AM79 °FSunny.2 mph48%30.21 "Hg10 mi
10:50 AM77 °FSunny.2 mph54%30.21 "Hg10 mi
9:50 AM73 °FSunny.3 mph57%30.21 "Hg10 mi
9:20 AM72 °FSunny.3 mph65%30.21 "Hg10 mi
8:50 AM68 °FSunny.3 mph73%30.21 "Hg10 mi
7:50 AM64 °FPassing clouds.6 mph78%30.21 "HgN/A
7:20 AM63 °FPassing clouds.6 mph83%30.21 "HgN/A
6:50 AM61 °FClear.5 mph83%30.21 "Hg10 mi
6:20 AM63 °FClear.5 mph83%30.21 "Hg10 mi
5:50 AM63 °FClear.5 mph83%30.21 "Hg10 mi
4:50 AM64 °FMild.6 mph78%30.21 "HgN/A
4:20 AM64 °FMild.6 mph78%30.21 "HgN/A
3:50 AM63 °FMild.5 mph83%30.21 "HgN/A
3:20 AM64 °FMild.5 mph78%30.18 "HgN/A
2:50 AM64 °FMild.3 mph78%30.18 "HgN/A
2:20 AM64 °FMild.3 mph78%30.18 "HgN/A
1:50 AM64 °FMild.2 mph78%30.18 "HgN/A
1:20 AM66 °FMild.2 mph73%30.18 "HgN/A
12:50 AM68 °FMild.2 mph69%30.18 "HgN/A
12:20 AM68 °FMild.3 mph69%30.18 "HgN/A
11:50 PM
Fri, Aug 28
70 °FMild.5 mph64%30.18 "HgN/A
11:20 PM72 °FMild.5 mph61%30.18 "HgN/A
10:50 PM68 °FMild.3 mph69%30.15 "HgN/A
10:20 PM72 °FMild.3 mph61%30.15 "HgN/A
9:50 PM73 °FClear.3 mph53%30.15 "Hg10 mi
9:20 PM70 °FClear.No wind64%30.12 "Hg10 mi
8:50 PM72 °FSunny.No wind61%30.12 "Hg10 mi
8:20 PM75 °FSunny.No wind54%30.12 "Hg10 mi
7:50 PM77 °FSunny.No wind51%30.09 "Hg10 mi
7:20 PM79 °FSunny.No wind39%30.09 "Hg10 mi
6:50 PM86 °FSunny.1 mph31%30.09 "Hg10 mi
6:20 PM86 °FSunny.2 mph35%30.09 "Hg10 mi
5:50 PM88 °FSunny.2 mph31%30.09 "Hg10 mi
5:20 PM86 °FSunny.2 mph29%30.09 "Hg10 mi
4:50 PM86 °FSunny.3 mph31%30.09 "Hg10 mi
4:20 PM86 °FSunny.2 mph29%30.09 "Hg10 mi
3:50 PM82 °FSunny.1 mph37%30.09 "Hg10 mi
3:20 PM84 °FPassing clouds.6 mph31%30.09 "HgN/A
Weather by CustomWeather, © 2015

See weather overviewHow to use our weather pages